1537059600.03,13166,17.81,74362.8,-1.47,-26.55,-26.71,0,*57
1537059601.31,13167,17.81,74366.0,-1.49,-26.71,-26.77,0,*58
1537059602.56,13168,17.75,74362.3,-1.49,-26.55,-26.61,0,*56
1537059603.81,13169,17.75,74362.8,-1.47,-26.87,-26.93,0,*5B
1537059605.07,13170,17.81,74358.0,-1.49,-26.77,-26.87,0,*57
1537059606.35,13171,17.81,74358.8,-1.49,-26.29,-26.55,0,*52
1537059607.55,13172,17.75,74358.0,-1.51,-26.23,-26.45,0,*53
1537059608.76,13173,17.75,74358.8,-1.51,-26.49,-26.65,0,*5C
1537059609.96,13174,17.81,74360.0,-1.51,-26.45,-26.61,0,*53
1537059611.2,13175,17.75,74360.5,-1.51,-26.33,-26.49,0,*59
1537059612.43,13176,17.81,74366.3,-1.51,-26.33,-26.49,0,*5A
1537059613.64,13177,17.81,74364.8,-1.51,-26.45,-26.61,0,*50
1537059614.84,13178,17.81,74366.3,-1.51,-25.13,-25.19,0,*53
1537059616.1,13179,17.81,74362.0,-1.47,-23.65,-23.75,0,*5E
1537059617.37,13180,17.81,74358.0,-1.47,-24.25,-24.57,0,*5C
1537059618.61,13181,17.81,74362.3,-1.43,-24.47,-24.47,0,*5C
1537059619.84,13182,17.75,74358.8,-1.43,-24.97,-25.19,0,*58
1537059621.08,13183,17.81,74360.3,-1.43,-25.13,-25.19,0,*54
1537059622.37,13184,17.81,74358.8,-1.39,-25.55,-25.55,0,*54
1537059623.63,13185,17.81,74358.0,-1.41,-25.81,-25.97,0,*5D
1537059624.86,13186,17.81,74354.0,-1.41,-25.97,-26.07,0,*53
1537059626.09,13187,17.81,74352.5,-1.41,-26.07,-26.13,0,*5D
1537059627.38,13188,17.81,74350.8,-1.39,-25.55,-25.75,0,*5A
1537059628.59,13189,17.81,74352.5,-1.41,-25.87,-26.07,0,*5D
1537059629.83,13190,17.81,74348.5,-1.39,-26.03,-26.23,0,*53
1537059631.08,13191,17.81,74354.0,-1.39,-26.29,-26.45,0,*5A
1537059632.32,13192,17.81,74352.5,-1.39,-26.39,-26.45,0,*58
1537059633.54,13193,17.75,74350.0,-1.41,-26.29,-26.45,0,*57
1537059634.77,13194,17.81,74350.5,-1.41,-26.29,-26.45,0,*50
1537059636.03,13195,17.81,74348.5,-1.39,-26.45,-26.55,0,*55
1537059637.23,13196,17.75,74346.0,-1.41,-26.61,-26.49,0,*52
1537059638.49,13197,17.81,74344.5,-1.41,-26.81,-26.93,0,*5A
1537059639.72,13198,17.81,74342.0,-1.41,-26.65,-26.81,0,*5C
1537059640.93,13199,17.75,74338.3,-1.41,-26.49,-26.49,0,*57
1537059642.19,13200,17.75,74344.3,-1.41,-26.29,-26.33,0,*5F
1537059643.39,13201,17.75,74358.5,-1.41,-26.45,-26.45,0,*55
1537059644.65,13202,17.75,74360.3,-1.41,-26.81,-26.81,0,*56
1537059645.92,13203,17.81,74360.0,-1.41,-26.33,-26.33,0,*57
1537059647.18,13204,17.81,74350.0,-1.43,-25.81,-25.91,0,*53
1537059648.46,13205,17.81,74354.8,-1.43,-25.97,-26.29,0,*55
1537059649.73,13206,17.75,74344.0,-1.43,-26.33,-26.45,0,*51
1537059650.99,13207,17.81,74340.3,-1.43,-26.33,-26.49,0,*5C
1537059652.23,13208,17.81,74350.8,-1.43,-26.61,-26.65,0,*5A
1537059653.52,13209,17.75,74344.8,-1.43,-26.77,-26.81,0,*56
1537059654.8,13210,17.81,74346.8,-1.43,-26.77,-26.93,0,*5D
1537059656.05,13211,17.75,74350.3,-1.45,-26.97,-27.03,0,*5C
1537059657.28,13212,17.81,74340.8,-1.43,-26.61,-26.65,0,*51
1537059658.55,13213,17.75,74338.0,-1.43,-26.33,-26.49,0,*59
1537059659.81,13214,17.75,74348.0,-1.43,-26.61,-26.77,0,*54
1537059661.05,13215,17.81,74350.0,-1.45,-26.97,-27.03,0,*58
1537059662.29,13216,17.75,74348.0,-1.43,-26.49,-26.61,0,*5B
1537059663.52,13217,17.81,74346.8,-1.43,-26.61,-26.65,0,*54
1537059664.79,13218,17.81,74358.8,-1.45,-26.81,-26.97,0,*5E
1537059666.03,13219,17.81,74362.3,-1.45,-26.65,-26.71,0,*5D
1537059667.27,13220,17.75,74354.3,-1.45,-26.49,-26.55,0,*5F
1537059668.5,13221,17.75,74354.8,-1.43,-26.45,-26.61,0,*53
1537059669.73,13222,17.81,74350.8,-1.45,-26.23,-26.33,0,*51
1537059670.99,13223,17.81,74358.8,-1.43,-25.45,-25.49,0,*5B
1537059672.24,13224,17.75,74360.5,-1.43,-25.49,-25.49,0,*50
1537059673.48,13225,17.81,74362.8,-1.43,-24.31,-24.31,0,*51
1537059674.72,13226,17.75,74342.3,-1.39,-24.47,-24.47,0,*5F
1537059676.01,13227,17.75,74344.8,-1.39,-25.71,-25.71,0,*5E
1537059677.24,13228,17.81,74346.5,-1.39,-26.07,-26.23,0,*57
1537059678.5,13229,17.81,74352.0,-1.39,-26.07,-26.13,0,*55
1537059679.76,13230,17.75,74358.3,-1.39,-26.29,-26.45,0,*52
1537059680.99,13231,17.81,74358.0,-1.39,-26.23,-26.39,0,*52
1537059682.24,13232,17.81,74354.8,-1.39,-26.29,-26.45,0,*50
1537059683.48,13233,17.81,74356.3,-1.41,-26.65,-26.77,0,*57
1537059684.74,13234,17.75,74362.3,-1.41,-25.97,-26.13,0,*5C
1537059685.98,13235,17.81,74356.0,-1.39,-26.03,-26.07,0,*59
1537059687.26,13236,17.75,74352.0,-1.39,-26.13,-26.29,0,*57
1537059688.49,13237,17.75,74352.8,-1.39,-26.45,-26.61,0,*59
1537059689.77,13238,17.81,74354.5,-1.39,-26.55,-26.71,0,*56
1537059691.0,13239,17.75,74362.3,-1.39,-26.45,-26.65,0,*53
1537059692.29,13240,17.81,74364.0,-1.35,-26.33,-26.33,0,*53
1537059693.5,13241,17.75,74364.8,-1.41,-26.65,-26.65,0,*51
1537059694.74,13242,17.81,74362.3,-1.41,-26.33,-26.49,0,*5F
1537059695.97,13243,17.75,74362.0,-1.39,-26.39,-26.45,0,*57
1537059697.22,13244,17.81,74362.5,-1.39,-26.55,-26.61,0,*5C
1537059698.43,13245,17.81,74366.3,-1.41,-26.49,-26.61,0,*5F
1537059699.63,13246,17.81,74372.0,-1.41,-26.49,-26.49,0,*56
1537059700.9,13247,17.81,74374.0,-1.41,-26.33,-26.33,0,*57
1537059702.1,13248,17.75,74372.3,-1.41,-25.35,-25.35,0,*58
1537059703.31,13249,17.75,74370.0,-1.41,-24.51,-24.61,0,*5A
1537059704.55,13250,17.81,74372.5,-1.39,-24.31,-24.47,0,*5F
1537059705.81,13251,17.75,74370.5,-1.39,-24.31,-24.41,0,*58
1537059707.06,13252,17.75,74370.5,-1.31,-24.57,-24.67,0,*57
1537059708.32,13253,17.75,74366.3,-1.31,-24.83,-24.93,0,*54
1537059709.55,13254,17.81,74362.3,-1.29,-24.67,-24.77,0,*5A
1537059710.8,13255,17.75,74358.0,-1.29,-24.87,-25.03,0,*57
1537059712.06,13256,17.81,74362.0,-1.27,-25.03,-25.35,0,*52
1537059713.31,13257,17.81,74358.0,-1.27,-25.91,-26.13,0,*5F
1537059714.57,13258,17.75,74354.0,-1.27,-26.33,-26.49,0,*54
1537059715.84,13259,17.75,74348.0,-1.27,-26.03,-26.33,0,*5B
1537059717.04,13260,17.81,74352.0,-1.29,-26.45,-26.49,0,*50
1537059718.27,13261,17.75,74356.8,-1.29,-26.61,-26.77,0,*5A
1537059719.5,13262,17.75,74354.8,-1.29,-26.61,-26.77,0,*59
1537059720.76,13263,17.75,74348.3,-1.31,-26.65,-26.71,0,*53
1537059722.01,13264,17.81,74352.5,-1.31,-26.49,-26.55,0,*5C
1537059723.27,13265,17.75,74354.0,-1.31,-26.33,-26.49,0,*5D
1537059724.5,13266,17.75,74356.0,-1.35,-26.49,-26.49,0,*57
1537059725.76,13267,17.81,74356.5,-1.35,-26.65,-26.71,0,*53
1537059727.05,13268,17.81,74358.0,-1.35,-26.81,-26.97,0,*5E
1537059728.3,13269,17.75,74358.0,-1.35,-26.87,-26.97,0,*59
1537059729.59,13270,17.75,74356.5,-1.35,-26.97,-27.23,0,*5E
1537059730.84,13271,17.75,74356.8,-1.35,-27.03,-27.23,0,*53
1537059732.1,13272,17.75,74358.5,-1.35,-27.03,-27.23,0,*50
1537059733.36,13273,17.75,74356.5,-1.39,-27.07,-27.23,0,*59
1537059734.56,13274,17.81,74362.5,-1.41,-26.87,-27.03,0,*5A
1537059735.82,13275,17.81,74364.0,-1.39,-26.93,-27.07,0,*55
1537059737.05,13276,17.81,74358.5,-1.39,-26.87,-26.87,0,*5A
1537059738.28,13277,17.75,74360.5,-1.41,-26.77,-26.65,0,*57
1537059739.55,13278,17.81,74360.5,-1.41,-26.77,-26.81,0,*52
1537059740.81,13279,17.75,74360.0,-1.39,-26.07,-26.13,0,*50
1537059742.06,13280,17.75,74364.0,-1.41,-26.13,-26.17,0,*58
1537059743.27,13281,17.75,74350.3,-1.41,-24.51,-24.51,0,*5D
1537059744.5,13282,17.81,74348.5,-1.39,-24.57,-24.57,0,*51
1537059745.74,13283,17.75,74350.5,-1.35,-25.49,-25.49,0,*5C
1537059746.98,13284,17.75,74356.5,-1.31,-26.03,-26.07,0,*5B
1537059748.27,13285,17.81,74360.5,-1.31,-26.17,-26.33,0,*58
1537059749.56,13286,17.75,74356.8,-1.31,-26.33,-26.33,0,*5D
1537059750.82,13287,17.81,74364.3,-1.35,-26.33,-26.49,0,*55
1537059752.04,13288,17.81,74364.5,-1.31,-26.39,-26.49,0,*54
1537059753.26,13289,17.81,74366.3,-1.35,-26.23,-26.23,0,*56
1537059754.55,13290,17.75,74364.0,-1.35,-25.71,-25.81,0,*51
1537059755.78,13291,17.75,74368.5,-1.35,-25.09,-25.23,0,*57
1537059757.04,13292,17.75,74366.0,-1.31,-25.49,-25.55,0,*55
1537059758.32,13293,17.81,74366.3,-1.31,-24.67,-24.67,0,*59
1537059759.57,13294,17.81,74366.3,-1.31,-23.85,-23.89,0,*52
1537059760.85,13295,17.75,74360.3,-1.27,-23.49,-23.49,0,*58
1537059762.12,13296,17.81,74360.8,-1.23,-23.99,-24.11,0,*58
1537059763.4,13297,17.81,74362.3,-1.23,-24.11,-24.15,0,*5A
1537059764.66,13298,17.75,74354.8,-1.23,-24.31,-24.41,0,*56
1537059765.89,13299,17.81,74358.8,-1.21,-24.25,-24.35,0,*53
1537059767.13,13300,17.75,74360.5,-1.19,-24.51,-24.61,0,*5B
1537059768.38,13301,17.81,74354.0,-1.19,-24.61,-24.67,0,*5F
1537059769.63,13302,17.81,74348.5,-1.17,-24.87,-24.87,0,*54
1537059770.84,13303,17.75,74346.5,-1.17,-25.49,-25.61,0,*5F
1537059772.06,13304,17.81,74348.3,-1.17,-25.75,-25.87,0,*5F
1537059773.3,13305,17.75,74348.0,-1.17,-26.03,-26.29,0,*5B
1537059774.51,13306,17.75,74356.0,-1.15,-26.23,-26.23,0,*52
1537059775.73,13307,17.81,74362.3,-1.19,-26.61,-26.61,0,*5F
1537059776.98,13308,17.81,74364.5,-1.21,-26.55,-26.71,0,*5D
1537059778.21,13309,17.75,74366.5,-1.21,-26.55,-26.65,0,*59
1537059779.44,13310,17.75,74370.0,-1.21,-26.49,-26.71,0,*59
1537059780.66,13311,17.75,74364.0,-1.21,-25.81,-25.87,0,*55
1537059781.93,13312,17.81,74364.0,-1.21,-25.55,-25.71,0,*56
1537059783.16,13313,17.81,74362.5,-1.19,-25.61,-25.65,0,*5E
1537059784.42,13314,17.81,74358.8,-1.21,-25.55,-25.71,0,*50
1537059785.69,13315,17.81,74358.3,-1.21,-25.55,-25.71,0,*51
1537059786.97,13316,17.81,74356.0,-1.19,-25.75,-25.81,0,*54
1537059788.2,13317,17.75,74354.8,-1.21,-26.17,-26.23,0,*52
1537059789.42,13318,17.81,74356.0,-1.21,-26.55,-26.65,0,*59
1537059790.66,13319,17.75,74354.5,-1.21,-26.65,-26.71,0,*5E
1537059791.89,13320,17.75,74354.3,-1.21,-26.65,-26.71,0,*54
1537059793.15,13321,17.81,74358.0,-1.21,-26.81,-26.71,0,*5F
1537059794.38,13322,17.75,74350.5,-1.23,-26.61,-26.61,0,*51
1537059795.62,13323,17.81,74358.5,-1.25,-26.55,-26.55,0,*56
1537059796.88,13324,17.81,74360.3,-1.23,-26.61,-26.71,0,*56
1537059798.16,13325,17.81,74364.0,-1.23,-26.71,-26.77,0,*50
1537059799.39,13326,17.81,74360.8,-1.23,-26.45,-26.61,0,*53
1537059800.61,13327,17.81,74354.0,-1.25,-26.39,-26.55,0,*58
1537059801.86,13328,17.81,74356.5,-1.23,-26.71,-26.87,0,*52
1537059803.06,13329,17.81,74358.8,-1.25,-26.61,-26.87,0,*54
1537059804.29,13330,17.81,74358.0,-1.25,-26.61,-26.71,0,*55
1537059805.54,13331,17.81,74358.5,-1.25,-26.71,-26.77,0,*53
1537059806.76,13332,17.81,74360.3,-1.25,-26.55,-26.61,0,*51
1537059808.0,13333,17.81,74360.3,-1.27,-26.65,-26.65,0,*55
1537059809.28,13334,17.81,74368.8,-1.27,-26.77,-26.81,0,*5B
1537059810.55,13335,17.81,74364.0,-1.29,-26.81,-26.81,0,*5D
1537059811.81,13336,17.75,74362.0,-1.29,-26.77,-26.93,0,*54
1537059813.09,13337,17.75,74366.5,-1.27,-26.77,-26.93,0,*5B
1537059814.29,13338,17.75,74368.3,-1.29,-26.49,-26.61,0,*5A
1537059815.56,13339,17.75,74370.8,-1.29,-26.77,-26.81,0,*58
1537059816.85,13340,17.75,74366.3,-1.27,-26.33,-26.33,0,*51
1537059818.08,13341,17.81,74358.3,-1.27,-25.61,-25.65,0,*54
1537059819.34,13342,17.81,74350.5,-1.29,-26.17,-26.29,0,*50
1537059820.58,13343,17.81,74350.8,-1.29,-26.65,-26.77,0,*5F
1537059821.78,13344,17.81,74358.0,-1.29,-26.45,-26.65,0,*59
1537059823.02,13345,17.81,74356.3,-1.29,-26.65,-26.81,0,*50
1537059824.28,13346,17.75,74354.0,-1.27,-26.61,-26.77,0,*50
1537059825.56,13347,17.75,74356.8,-1.27,-26.77,-26.81,0,*5F
1537059826.8,13348,17.81,74358.5,-1.29,-26.81,-27.13,0,*5D
1537059828.06,13349,17.81,74360.0,-1.29,-26.81,-26.81,0,*56
1537059829.32,13350,17.75,74356.8,-1.29,-26.77,-26.81,0,*57
1537059830.58,13351,17.75,74356.5,-1.31,-26.81,-26.87,0,*50
1537059831.83,13352,17.81,74360.5,-1.31,-26.87,-26.97,0,*54
1537059833.06,13353,17.81,74356.5,-1.31,-26.87,-27.03,0,*59
1537059834.31,13354,17.75,74358.3,-1.31,-26.87,-26.97,0,*52
1537059835.57,13355,17.75,74362.5,-1.35,-26.81,-26.87,0,*50
1537059836.83,13356,17.81,74362.3,-1.35,-26.71,-26.65,0,*50
1537059838.09,13357,17.75,74356.0,-1.35,-26.81,-26.87,0,*52
1537059839.32,13358,17.81,74360.3,-1.35,-26.87,-27.03,0,*56
1537059840.61,13359,17.75,74358.3,-1.35,-26.81,-26.97,0,*5D
1537059841.86,13360,17.75,74362.8,-1.39,-26.93,-26.87,0,*59
1537059843.13,13361,17.75,74364.3,-1.39,-26.93,-27.03,0,*55
1537059844.38,13362,17.75,74360.0,-1.39,-26.87,-26.93,0,*5B
1537059845.64,13363,17.81,74370.5,-1.35,-26.81,-27.03,0,*58
1537059846.91,13364,17.81,74366.5,-1.41,-26.81,-26.97,0,*50
1537059848.14,13365,17.75,74366.0,-1.39,-26.87,-27.03,0,*54
1537059849.37,13366,17.81,74368.8,-1.39,-26.87,-26.87,0,*5A
1537059850.65,13367,17.75,74360.0,-1.39,-26.71,-26.77,0,*5D
1537059851.88,13368,17.81,74364.5,-1.39,-26.07,-26.23,0,*52
1537059853.11,13369,17.75,74360.5,-1.41,-26.07,-26.17,0,*5B
1537059854.36,13370,17.81,74374.0,-1.39,-25.45,-25.61,0,*5B
1537059855.65,13371,17.75,74368.3,-1.39,-24.15,-24.25,0,*5F
1537059856.88,13372,17.81,74362.5,-1.35,-25.35,-25.49,0,*58
1537059858.12,13373,17.75,74354.8,-1.31,-25.49,-25.65,0,*58
1537059859.38,13374,17.75,74350.8,-1.31,-26.03,-26.17,0,*54
1537059860.61,13375,17.81,74356.0,-1.31,-26.49,-26.65,0,*5E
1537059861.87,13376,17.81,74360.5,-1.31,-26.65,-26.71,0,*56
1537059863.14,13377,17.75,74366.8,-1.35,-26.55,-26.55,0,*56
1537059864.37,13378,17.75,74368.5,-1.31,-26.39,-26.49,0,*5A
1537059865.62,13379,17.75,74364.0,-1.31,-26.17,-26.23,0,*5B
1537059866.9,13380,17.75,74360.0,-1.35,-26.55,-26.71,0,*58
1537059868.17,13381,17.75,74366.0,-1.31,-26.55,-26.81,0,*52
1537059869.45,13382,17.75,74358.0,-1.31,-26.55,-26.71,0,*5E
1537059870.71,13383,17.75,74360.5,-1.35,-26.81,-27.03,0,*56
1537059872.0,13384,17.81,74364.8,-1.31,-26.81,-26.97,0,*59
1537059873.27,13385,17.75,74372.3,-1.35,-26.71,-26.71,0,*5B
1537059874.5,13386,17.75,74370.3,-1.39,-26.87,-26.87,0,*54
1537059875.76,13387,17.75,74366.8,-1.39,-26.55,-26.61,0,*52
1537059876.99,13388,17.75,74358.5,-1.39,-26.45,-26.61,0,*5C
1537059878.26,13389,17.75,74358.8,-1.39,-26.55,-26.71,0,*5D
1537059879.55,13390,17.81,74374.5,-1.39,-26.77,-26.77,0,*53
1537059880.75,13391,17.81,74374.0,-1.41,-26.61,-26.65,0,*59
1537059882.01,13392,17.81,74370.3,-1.39,-26.61,-26.71,0,*50
1537059883.21,13393,17.81,74366.8,-1.41,-26.49,-26.61,0,*55
1537059884.48,13394,17.81,74352.5,-1.39,-26.03,-26.13,0,*56
1537059885.71,13395,17.81,74344.0,-1.39,-26.23,-26.45,0,*56
1537059886.94,13396,17.75,74338.0,-1.39,-26.61,-26.87,0,*5D
1537059888.16,13397,17.81,74348.8,-1.41,-26.61,-26.71,0,*5A
1537059889.45,13398,17.75,74360.3,-1.39,-26.77,-26.93,0,*51
1537059890.73,13399,17.81,74372.3,-1.39,-26.29,-26.77,0,*51
1537059891.97,13400,17.81,74370.3,-1.41,-26.17,-26.61,0,*53
1537059893.22,13401,17.75,74362.5,-1.39,-26.39,-26.77,0,*56
1537059894.45,13402,17.81,74362.3,-1.41,-26.29,-26.49,0,*56
1537059895.73,13403,17.81,74370.8,-1.39,-26.55,-26.55,0,*5E
1537059896.98,13404,17.75,74364.3,-1.39,-26.45,-26.71,0,*5E
1537059898.22,13405,17.75,74362.5,-1.41,-26.65,-26.77,0,*54
1537059899.45,13406,17.75,74358.8,-1.41,-26.33,-26.49,0,*59
1537059900.69,13407,17.75,74362.8,-1.39,-26.39,-26.39,0,*5A
1537059901.98,13408,17.81,74364.0,-1.39,-25.71,-25.75,0,*51
1537059903.21,13409,17.75,74366.5,-1.39,-25.91,-26.07,0,*58
1537059904.46,13410,17.75,74370.5,-1.41,-25.45,-25.45,0,*53
1537059905.7,13411,17.81,74368.3,-1.39,-24.31,-24.31,0,*5D
1537059906.95,13412,17.75,74354.8,-1.35,-25.03,-25.19,0,*59
1537059908.16,13413,17.75,74352.8,-1.29,-24.61,-24.61,0,*5E
1537059909.38,13414,17.81,74350.8,-1.29,-25.29,-25.35,0,*54
1537059910.6,13415,17.81,74344.0,-1.29,-25.49,-25.61,0,*52
1537059911.86,13416,17.75,74340.5,-1.29,-25.97,-26.13,0,*54
1537059913.08,13417,17.75,74356.5,-1.27,-26.45,-26.49,0,*58
1537059914.29,13418,17.75,74358.5,-1.29,-26.49,-26.65,0,*5B
1537059915.49,13419,17.75,74352.8,-1.29,-26.45,-26.49,0,*58
1537059916.73,13420,17.75,74350.0,-1.29,-26.03,-26.17,0,*5B
1537059917.93,13421,17.75,74348.8,-1.29,-26.45,-26.49,0,*53
1537059919.16,13422,17.75,74348.0,-1.29,-26.61,-26.77,0,*5B
1537059920.39,13423,17.75,74358.3,-1.29,-26.33,-26.49,0,*50
1537059921.6,13424,17.75,74360.3,-1.29,-26.65,-26.61,0,*5E
1537059922.84,13425,17.81,74360.0,-1.29,-26.65,-26.77,0,*58
1537059924.04,13426,17.75,74366.8,-1.29,-26.45,-26.45,0,*58
1537059925.32,13427,17.75,74372.8,-1.31,-26.81,-26.71,0,*5F
1537059926.58,13428,17.75,74366.8,-1.31,-26.81,-26.87,0,*59
1537059927.87,13429,17.75,74364.5,-1.35,-26.81,-26.97,0,*5D
1537059929.13,13430,17.75,74362.5,-1.31,-26.65,-26.71,0,*53
1537059930.38,13431,17.75,74362.8,-1.31,-26.49,-26.55,0,*5A
1537059931.65,13432,17.75,74362.3,-1.31,-26.71,-26.71,0,*54
1537059932.91,13433,17.81,74362.5,-1.35,-26.33,-26.49,0,*5C
1537059934.17,13434,17.75,74360.8,-1.35,-26.33,-26.49,0,*5B
1537059935.41,13435,17.75,74356.0,-1.35,-26.65,-26.87,0,*5B
1537059936.66,13436,17.75,74354.0,-1.31,-26.87,-26.97,0,*51
1537059937.92,13437,17.81,74360.3,-1.31,-26.97,-27.03,0,*5D
1537059939.17,13438,17.75,74352.5,-1.35,-26.87,-27.19,0,*5C
1537059940.44,13439,17.75,74356.5,-1.35,-26.65,-26.81,0,*51
1537059941.7,13440,17.75,74356.5,-1.35,-26.81,-26.87,0,*53
1537059942.9,13441,17.75,74360.3,-1.41,-26.61,-26.61,0,*57
1537059944.16,13442,17.81,74360.3,-1.39,-26.93,-27.07,0,*57
1537059945.4,13443,17.75,74362.5,-1.41,-26.93,-27.07,0,*59
1537059946.61,13444,17.75,74368.5,-1.41,-27.07,-27.07,0,*52
1537059947.84,13445,17.75,74368.0,-1.41,-26.97,-27.07,0,*5B
1537059949.1,13446,17.81,74368.8,-1.41,-26.93,-26.97,0,*54
1537059950.33,13447,17.75,74380.0,-1.41,-26.97,-27.13,0,*5C
1537059951.6,13448,17.75,74370.5,-1.39,-26.93,-27.07,0,*5D
1537059952.8,13449,17.75,74366.3,-1.41,-26.49,-26.61,0,*55
1537059954.06,13450,17.81,74354.5,-1.41,-26.29,-26.33,0,*5C
1537059955.29,13451,17.75,74356.0,-1.43,-26.45,-26.45,0,*54
1537059956.5,13452,17.75,74360.5,-1.41,-26.49,-26.61,0,*5F
1537059957.76,13453,17.75,74364.3,-1.41,-26.77,-26.81,0,*5D
1537059959.02,13454,17.75,74366.3,-1.41,-26.81,-26.81,0,*53
1537059960.29,13455,17.81,74368.5,-1.41,-26.77,-26.81,0,*5B
1537059961.52,13456,17.81,74370.5,-1.41,-26.65,-26.81,0,*5B
1537059962.78,13457,17.75,74364.0,-1.43,-26.17,-26.45,0,*55
1537059964.05,13458,17.75,74360.8,-1.43,-26.33,-26.49,0,*50
1537059965.31,13459,17.75,74360.5,-1.43,-26.07,-26.13,0,*59
1537059966.57,13460,17.75,74358.0,-1.41,-26.13,-26.29,0,*5D
1537059967.8,13461,17.75,74360.8,-1.41,-26.33,-26.49,0,*58
1537059969.04,13462,17.75,74364.8,-1.41,-26.65,-26.77,0,*55
1537059970.29,13463,17.75,74366.3,-1.39,-26.61,-26.71,0,*59
1537059971.52,13464,17.75,74362.3,-1.39,-26.45,-26.45,0,*5F
1537059972.73,13465,17.75,74366.8,-1.41,-26.49,-26.61,0,*5B
1537059973.96,13466,17.75,74364.5,-1.41,-26.77,-26.65,0,*51
1537059975.22,13467,17.75,74370.8,-1.39,-26.55,-26.45,0,*5D
1537059976.42,13468,17.75,74364.0,-1.41,-25.91,-25.91,0,*5C
1537059977.62,13469,17.75,74362.5,-1.41,-25.61,-25.65,0,*59
1537059978.85,13470,17.75,74360.0,-1.41,-25.81,-25.91,0,*54
1537059980.09,13471,17.75,74356.5,-1.41,-25.65,-25.75,0,*55
1537059981.29,13472,17.75,74358.5,-1.41,-25.91,-25.87,0,*50
1537059982.52,13473,17.75,74360.5,-1.39,-25.87,-25.87,0,*59
1537059983.75,13474,17.75,74358.8,-1.39,-25.87,-25.87,0,*5E
1537059984.98,13475,17.75,74360.8,-1.39,-25.87,-25.87,0,*5F
1537059986.21,13476,17.75,74366.8,-1.39,-25.91,-25.91,0,*5C
1537059987.47,13477,17.75,74370.0,-1.39,-26.07,-26.13,0,*58
1537059988.73,13478,17.75,74366.5,-1.35,-25.87,-25.71,0,*57
1537059989.97,13479,17.75,74368.0,-1.35,-25.39,-25.39,0,*5F
1537059991.2,13480,17.75,74368.0,-1.35,-24.51,-24.35,0,*5B
1537059992.46,13481,17.75,74366.3,-1.31,-24.35,-24.41,0,*5F
1537059993.67,13482,17.75,74364.0,-1.29,-24.47,-24.61,0,*52
1537059994.93,13483,17.75,74364.5,-1.27,-25.13,-25.29,0,*50
1537059996.18,13484,17.75,74360.5,-1.27,-25.45,-25.65,0,*5C
1537059997.42,13485,17.75,74352.3,-1.29,-25.65,-25.75,0,*50
1537059998.7,13486,17.75,74352.0,-1.27,-25.81,-25.97,0,*5B
1537059999.96,13487,17.75,74352.0,-1.27,-26.29,-26.45,0,*57
1537060001.19,13488,17.75,74350.3,-1.27,-26.61,-26.61,0,*52
1537060002.39,13489,17.75,74352.3,-1.29,-26.49,-26.65,0,*53
1537060003.63,13490,17.75,74358.5,-1.27,-26.65,-26.61,0,*5F
1537060004.89,13491,17.75,74358.0,-1.29,-26.17,-26.29,0,*59
1537060006.15,13492,17.75,74352.0,-1.29,-26.17,-26.29,0,*5A
1537060007.4,13493,17.75,74346.8,-1.31,-25.81,-25.87,0,*59
1537060008.66,13494,17.75,74338.8,-1.31,-25.97,-26.03,0,*56
1537060009.92,13495,17.75,74340.8,-1.31,-26.07,-26.17,0,*58
1537060011.18,13496,17.75,74350.5,-1.29,-26.17,-26.29,0,*5E
1537060012.44,13497,17.75,74354.8,-1.29,-26.33,-26.29,0,*59
1537060013.67,13498,17.75,74352.0,-1.29,-25.91,-25.97,0,*5B
1537060014.93,13499,17.75,74360.8,-1.29,-26.17,-26.29,0,*51
1537060016.14,13500,17.75,74358.0,-1.29,-25.91,-26.03,0,*55
1537060017.4,13501,17.81,74356.0,-1.29,-26.17,-26.29,0,*51
1537060018.64,13502,17.75,74352.3,-1.29,-26.33,-26.45,0,*5E
1537060019.92,13503,17.75,74340.0,-1.31,-26.33,-26.33,0,*57
1537060021.18,13504,17.75,74342.8,-1.31,-26.23,-26.33,0,*51
1537060022.4,13505,17.75,74360.0,-1.31,-25.87,-25.87,0,*51
1537060023.67,13506,17.81,74366.3,-1.31,-26.03,-26.17,0,*57
1537060024.93,13507,17.75,74358.8,-1.35,-25.87,-25.97,0,*56
1537060026.19,13508,17.75,74360.8,-1.31,-25.87,-25.97,0,*5D
1537060027.44,13509,17.75,74362.0,-1.31,-26.33,-26.23,0,*5C
1537060028.71,13510,17.75,74360.0,-1.31,-26.33,-26.39,0,*5F
1537060029.93,13511,17.75,74362.3,-1.31,-26.39,-26.49,0,*53
1537060031.18,13512,17.75,74356.5,-1.31,-26.55,-26.65,0,*54
1537060032.44,13513,17.75,74362.5,-1.35,-26.71,-26.65,0,*57
1537060033.73,13514,17.75,74360.0,-1.35,-26.81,-26.97,0,*52
1537060035.01,13515,17.75,74364.5,-1.35,-26.71,-26.81,0,*5B
1537060036.24,13516,17.75,74362.3,-1.35,-26.23,-26.39,0,*5C
1537060037.53,13517,17.75,74360.8,-1.31,-26.33,-26.33,0,*52
1537060038.82,13518,17.75,74360.3,-1.35,-26.33,-26.33,0,*59
1537060040.05,13519,17.75,74364.5,-1.35,-26.65,-26.65,0,*58
1537060041.31,13520,17.75,74368.8,-1.35,-26.49,-26.55,0,*5F
1537060042.53,13521,17.75,74370.5,-1.35,-26.23,-26.23,0,*53
1537060043.79,13522,17.75,74372.0,-1.35,-26.33,-26.23,0,*51
1537060045.05,13523,17.75,74368.8,-1.35,-26.49,-26.55,0,*5C
1537060046.33,13524,17.75,74364.5,-1.35,-26.71,-26.71,0,*56
1537060047.55,13525,17.75,74360.0,-1.35,-26.39,-26.49,0,*50
1537060048.79,13526,17.75,74366.0,-1.39,-25.87,-26.03,0,*57
1537060050.05,13527,17.75,74360.8,-1.39,-25.29,-25.39,0,*58
1537060051.3,13528,17.75,74356.8,-1.31,-25.03,-25.23,0,*5C
1537060052.58,13529,17.75,74360.5,-1.35,-25.81,-25.97,0,*5C
1537060053.84,13530,17.75,74360.3,-1.35,-26.49,-26.55,0,*5E
1537060055.1,13531,17.75,74358.3,-1.31,-26.49,-26.55,0,*5B
1537060056.38,13532,17.75,74362.5,-1.31,-26.81,-26.81,0,*55
1537060057.64,13533,17.75,74362.8,-1.35,-26.81,-26.87,0,*56
1537060058.91,13534,17.75,74360.0,-1.35,-26.65,-26.81,0,*5D
1537060060.14,13535,17.75,74356.3,-1.39,-26.61,-26.61,0,*5A
1537060061.4,13536,17.75,74358.0,-1.41,-26.77,-26.81,0,*5F
1537060062.65,13537,17.75,74344.5,-1.39,-26.87,-26.93,0,*5D
1537060063.88,13538,17.75,74346.5,-1.39,-26.87,-26.87,0,*57
1537060065.12,13539,17.75,74362.3,-1.41,-26.65,-26.77,0,*5A
1537060066.38,13540,17.75,74368.5,-1.41,-26.81,-26.81,0,*57
1537060067.58,13541,17.75,74364.3,-1.41,-26.45,-26.49,0,*5A
1537060068.81,13542,17.75,74360.5,-1.41,-26.29,-26.49,0,*53
1537060070.04,13543,17.75,74356.0,-1.41,-25.75,-25.65,0,*55
1537060071.31,13544,17.75,74356.3,-1.39,-25.55,-25.65,0,*5F
1537060072.6,13545,17.75,74358.3,-1.39,-25.71,-25.71,0,*5D
1537060073.86,13546,17.75,74354.5,-1.39,-25.75,-25.91,0,*54
1537060075.12,13547,17.75,74358.8,-1.39,-26.29,-26.39,0,*5E
1537060076.37,13548,17.75,74362.5,-1.39,-26.45,-26.55,0,*51
1537060077.63,13549,17.75,74360.0,-1.39,-26.29,-26.45,0,*5B
1537060078.88,13550,17.75,74362.3,-1.39,-26.39,-26.55,0,*53
1537060080.14,13551,17.75,74356.8,-1.39,-26.61,-26.77,0,*5F
1537060081.4,13552,17.75,74354.0,-1.39,-26.77,-26.87,0,*54
1537060082.63,13553,17.75,74350.3,-1.39,-26.87,-27.07,0,*53
1537060083.88,13554,17.75,74356.0,-1.39,-26.87,-26.93,0,*58
1537060085.09,13555,17.75,74356.0,-1.41,-26.61,-26.65,0,*57
1537060086.29,13556,17.75,74354.3,-1.41,-26.49,-26.61,0,*5A
1537060087.53,13557,17.75,74360.3,-1.41,-26.77,-26.65,0,*52
1537060088.76,13558,17.75,74362.3,-1.39,-26.61,-26.45,0,*57
1537060089.96,13559,17.75,74364.0,-1.41,-26.61,-26.61,0,*5F
1537060091.17,13560,17.75,74366.3,-1.41,-26.49,-26.61,0,*5F
1537060092.38,13561,17.75,74362.0,-1.41,-26.65,-26.65,0,*54
1537060093.64,13562,17.75,74360.8,-1.41,-26.77,-26.93,0,*5D
1537060094.88,13563,17.75,74360.3,-1.41,-26.65,-26.77,0,*55
1537060096.14,13564,17.75,74360.8,-1.41,-26.77,-26.81,0,*58
1537060097.38,13565,17.75,74370.8,-1.41,-26.65,-26.81,0,*5A